AirNav   Air Wisconsin pilot careers
 
 410 users online  

MO85 Wells Airport
Marshfield, Missouri, USA

GOING TO MARSHFIELD?


FAA INFORMATION EFFECTIVE 09 NOVEMBER 2017

Location

FAA Identifier: MO85
Lat/Long: 37-15-06.1760N / 092-50-01.6230W
37-15.102933N / 092-50.027050W
37.2517156 / -92.8337842
(estimated)
Elevation: 1530 ft. / 466 m (estimated)
Variation: 02E (2000)
From city: 6 miles SE of MARSHFIELD, MO
Time zone: UTC -6 (UTC -5 during Daylight Saving Time)
Zip code: 65706

Airport Operations

Airport use: Private use. Permission required prior to landing
Activation date: 12/2000
Control tower: no
ARTCC: KANSAS CITY CENTER
FSS: COLUMBIA FLIGHT SERVICE STATION
Attendance: UNATNDD
Wind indicator: yes
Segmented circle: no

Nearby radio navigation aids

VOR radial/distance  VOR name  Freq  Var
DGDr008/13.8DOGWOOD VORTAC109.4001E
SGFr101/24.7SPRINGFIELD VORTAC116.9004E

 
NDB name  Hdg/Dist  Freq  Var  ID
LEBANON201/20.941403EIEB .. . -...

Airport Services

Runway Information

Runway 18/36

Dimensions: 2300 x 75 ft. / 701 x 23 m
Surface: turf
RUNWAY 18  RUNWAY 36
Traffic pattern: leftleft
Displaced threshold: 200 ft.200 ft.
Obstructions: 80 ft. trees, 200 ft. from runway80 ft. trees, 200 ft. from runway

Airport Ownership and Management from official FAA records

Ownership: Privately-owned
Owner: LARRY WELLS
2411 LONG STATE HIGHWAY P
MARSHFIELD, MO 65706
Phone 417-859-6423
Manager: LARRY WELLS
2411 LONG STATE HIGHWAY P
MARSHFIELD, MO 65706
Phone 417-859-6423

Airport Operational Statistics

Aircraft based on the field: 1
Single engine airplanes: 1
    

Instrument Procedures

There are no published instrument procedures at MO85.

Some nearby airports with instrument procedures:

KAOV - Ava Bill Martin Memorial Airport (18 nm SE)
3DW - Downtown Airport (20 nm W)
KLBO - Floyd W Jones Lebanon Airport (25 nm N)
1MO - Mountain Grove Memorial Airport (26 nm E)
KSGF - Springfield-Branson National Airport (27 nm W)
 
Loc | Ops | Rwys | IFR | FBO | Links
Com | Nav | Svcs | Stats | Notes

Kansas City Aviation Department
 
Area around MO85 (Wells Airport)
 
Road maps at: MapQuest Bing Google
 
Aerial photo
WARNING: Photo may not be current or correct
Aerial photo of MO85 (Wells Airport)
Do you have a better or more recent aerial photo of Wells Airport that you would like to share? If so, please send us your photo.

 
Sectional chart

 
Airport distance calculator
Flying to Wells Airport? Find the distance to fly.

From to MO85

Sunrise and sunset
Times for 25-Nov-2017
 Local
(UTC-6)
 Zulu
(UTC)
Morning civil twilight06:3312:33
Sunrise07:0213:02
Sunset16:5522:55
Evening civil twilight17:2323:23

Current date and time
Zulu (UTC)  25-Nov-2017 11:49:29
Local (UTC-6)  25-Nov-2017 05:49:29
 
METAR
KLBO 
25nm N 
251135Z AUTO 01005KT 10SM CLR 08/01 A3002 RMK AO2
KSGF 
26nm W 
251052Z 02009KT 10SM CLR 11/04 A2998 RMK AO2 SLP149 T01060039
KFWB 
43nm SW 
251115Z AUTO 02006KT 10SM FEW100 FEW120 12/04 A3000 RMK AO2
KOZS 
44nm N 
251135Z AUTO 33004KT 10SM CLR 07/02 A3002 RMK AO2
KTBN 
44nm NE 
251056Z AUTO 34008KT 10SM CLR 09/04 A2997 RMK AO2 SLP149 T00940036
KBBG 
47nm S 
251135Z AUTO 36007KT 10SM FEW037 FEW070 SCT110 12/04 A3000 RMK AO2
KUNO 
50nm SE 
251053Z AUTO 35007G20KT 10SM CLR 13/04 A2996 RMK AO2 SLP139 T01280044 $
TAF
KSGF 
26nm W 
250520Z 2506/2606 29008KT P6SM BKN250 FM250800 32008KT P6SM BKN120 FM251400 36008KT P6SM SCT250 FM252300 36004KT P6SM SKC
NOTAMs
Click for the latest NOTAMs
NOTAMs are issued by the DoD/FAA and will open in a separate window not controlled by AirNav.

 

 
 

Would you like to see your business listed on this page?

 If your business provides an interesting product or service to pilots, flight crews, aircraft, or users of the Wells Airport, you should consider listing it here.  To start the listing process, click on the button below
 
Add a business
 

Other Pages about Wells Airport

Update a link
 
Copyright © AirNav, LLC. All rights reserved. Privacy Policy  Contact